FENGYUN 2G (40367 NORAD) Tracking and Keplerian Element Data

This shows tracking and keplerian element data for the satellite.

Feedback or suggestion? Click here.




ElementValue
Catalog40367
NameFENGYUN 2G
Epoch Orbit1929
Epoch Day91.95535666
Epoch Year2020
RAAN95.677
Inclination1.8993
Eccentricity0.0002452
Argument of Perigee339.2875
Mean Anonmoly198.0849
Mean Motion1.00280056
Decay Rate-3.04E-06
L11 40367U 14090A 20091.95535666 -.00000304 00000-0 00000-0 0 9999
L22 40367 1.8993 95.6770 0002452 339.2875 198.0849 1.00280056 19298

Live tracking and technical data element details for FENGYUN 2G (NORAD 40367). FENGYUN 2G can be tracked NOW for your location showing map with azimuth and elevation plus other details from your city location.

Track the satellite on the map from your city or location and see movement details for azimuth, elevation, latitude, longitude, range, height, and movement on the map or in text.







IsCatalogInMostPopularTable: catalog: 40367, numindb: 326
Update: records affected: 1



GetName: 40367 FENGYUN 2G

Hit Count: updated at: Fri, 03 Apr 2020 08:47:31 GMT